Flag for Germany Weather past 2 weeks in Idar-Oberstein, Rhineland-Palatinate, Germany

37 °F

Light rain. Fog.

Feels Like: 30 °F
Forecast: 35 / 41 °F
Wind: 10 mph from North

Location: Hahn

Current Time: Oct 13, 2015 at 9:20:30 PM

Latest Report: Oct 13, 2015 at 8:50 PM

Visibility: 2 mi

Pressure: 30.01 "Hg

Humidity: 100%

Dew point: 37 °F

Location of Idar-ObersteinLocation

Historic Weather in Idar-Oberstein — Graph


Idar-Oberstein temperature yesterday

Maximum temperature yesterday: 48 °F (at 2:50 PM)
Minimum temperature yesterday: 34 °F (at 5:20 AM)
Average temperature yesterday: 40 °F

Past Weeks' High & Low Weather Summary

High64 °F (Oct 3, 4:50 PM)100% (Oct 4, 5:20 AM)30.54 "Hg (Oct 4, 5:20 AM)
Low30 °F (Oct 13, 6:20 AM)44% (Oct 1, 2:20 PM)29.65 "Hg (Oct 6, 3:50 PM)
Average49 °F83%30.09 "Hg
* Reported Sep 28 7:20 PM — Oct 13 7:50 PM, Idar-Oberstein, Weather by CustomWeather, © 2015

Note: Actual official high and low records may vary slightly from our data, if they occured in-between our weather recording intervals... More about our weather records


Idar-Oberstein weather history for previous 24 hours

Time TempWeatherWind HumidityBarometerVisibility
7:50 PM
Tue, Oct 13
39 °FLight rain. Fog.9 mph100%29.98 "Hg2 mi
7:20 PM39 °FLight rain. Fog.10 mph100%29.98 "Hg2 mi
6:50 PM39 °FDrizzle. Fog.8 mph100%29.98 "Hg2 mi
6:20 PM39 °FLight rain. Fog.10 mph100%29.98 "Hg2 mi
5:58 PM39 °FLight rain. Fog.7 mph100%29.98 "Hg2 mi
5:20 PM39 °FBroken clouds.7 mph93%29.95 "Hg4 mi
4:50 PM41 °FLight rain. Broken clouds.6 mph87%29.95 "Hg4 mi
4:20 PM41 °FBroken clouds.6 mph87%29.95 "Hg4 mi
3:50 PM41 °FBroken clouds.7 mph87%29.95 "Hg6 mi
3:20 PM41 °FBroken clouds.8 mph87%29.95 "Hg6 mi
2:50 PM41 °FPartly sunny.8 mph87%29.95 "Hg6 mi
2:20 PM39 °FPartly sunny.7 mph93%29.95 "HgN/A
1:50 PM41 °FPartly sunny.7 mph87%29.95 "HgN/A
1:20 PM41 °FSunny.2 mph87%29.95 "Hg10 mi
12:50 PM41 °FPartly sunny.2 mph81%29.95 "HgN/A
12:20 PM39 °FPassing clouds.5 mph87%29.92 "HgN/A
11:50 AM39 °FPassing clouds.6 mph87%29.92 "HgN/A
11:20 AM37 °FSunny.5 mph93%29.92 "Hg10 mi
10:50 AM37 °FSunny.8 mph87%29.92 "Hg10 mi
10:20 AM36 °FSunny.6 mph93%29.92 "Hg10 mi
9:50 AM37 °FSunny.5 mph87%29.92 "Hg10 mi
9:20 AM39 °FSunny.5 mph87%29.92 "Hg10 mi
8:50 AM34 °FSunny.2 mph93%29.92 "Hg10 mi
8:20 AM34 °FPassing clouds.3 mph93%29.92 "HgN/A
7:50 AM34 °FClear.9 mph93%29.92 "Hg10 mi
7:20 AM32 °FClear.9 mph93%29.92 "Hg10 mi
6:50 AM32 °FClear.9 mph93%29.92 "Hg10 mi
6:20 AM30 °FClear.10 mph100%29.92 "Hg10 mi
5:50 AM32 °FClear.9 mph93%29.92 "Hg10 mi
5:20 AM34 °FClear.9 mph87%29.92 "Hg10 mi
4:50 AM36 °FClear.7 mph81%29.92 "Hg10 mi
4:20 AM34 °FClear.8 mph87%29.92 "Hg10 mi
3:50 AM36 °FPassing clouds.9 mph81%29.95 "HgN/A
3:20 AM34 °FClear.8 mph87%29.95 "Hg10 mi
2:50 AM36 °FClear.8 mph81%29.95 "Hg10 mi
1:50 AM36 °FClear.6 mph81%29.95 "Hg10 mi
1:20 AM36 °FClear.8 mph81%29.95 "Hg10 mi
12:50 AM36 °FClear.8 mph81%29.95 "Hg10 mi
12:20 AM36 °FClear.8 mph81%29.98 "Hg10 mi
11:50 PM
Mon, Oct 12
37 °FClear.8 mph75%29.98 "Hg10 mi
10:50 PM39 °FClear.6 mph70%29.98 "Hg10 mi
10:20 PM39 °FClear.5 mph70%29.98 "Hg10 mi
9:50 PM39 °FClear.6 mph70%29.98 "Hg10 mi
9:20 PM39 °FClear.6 mph70%30.01 "Hg10 mi
Weather by CustomWeather, © 2015

See weather overviewHow to use our weather pages